Other Public Products
Issued by NWS Grand Forks, ND

Home | Current Version | Previous Version | Text Only | Print | Product List | Glossary Off
Versions: 1 2 3 4 5 6 7 8 9 10 11 12 13 14 15 16 17 18 19 20 21 22 23 24 25 26 27 28 29 30 31 32 33 34 35 36 37 38 39 40 41 42 43 44 45 46 47 48 49 50

000
FPUS83 KFGF 290131
OPUFGF
PRAIRIE TO PINES WEATHER ROUNDUP
NATIONAL WEATHER SERVICE EASTERN NORTH DAKOTA/GRAND FORKS ND
800 PM CDT FRI AUG 28 2015

 **SATELLITE DATA USED TO AUGMENT SKY COVER AT AUTOMATED STATIONS**
 *****  WEATHER ACROSS EASTERN NORTH DAKOTA  *****

CITY           SKY/WX    TMP DP  RH WIND       PRES   REMARKS
GRAND FORKS    MOCLDY    76  68  76 S9        29.83R
GRAND FORKS AF CLEAR     77  70  78 S8        29.84R
GRAND CITY NWS   N/A     75 N/A N/A S13         N/A
BUXTON         NOT AVBL
DEVILS LAKE    PTCLDY    77  63  61 SW5       29.86R
FARGO          CLEAR     78  67  68 S10       29.89R
WAHPETON ARPT  CLEAR     70  61  73 S8        29.94R
$$

 *****  WEATHER ACROSS CENTRAL AND WESTERN NORTH DAKOTA  *****

CITY           SKY/WX    TMP DP  RH WIND       PRES   REMARKS
JAMESTOWN      CLEAR     75  70  84 S8        29.88R
BISMARCK       PTCLDY    78  68  71 SE6       29.88S
MINOT          CLEAR     78  60  53 CALM      29.85S
MINOT AFB      CLEAR     78  63  59 E3        29.84S
GARRISON         N/A     75  32  20 SE3       29.88S
WILLISTON      MOCLDY    82  48  30 W7        29.89R HAZE
DICKINSON      MOCLDY    79  52  38 W5        29.92S HAZE
HETTINGER      MOCLDY    76  53  44 W7        29.97S HAZE
$$

 *****  OTHER OBSERVATIONS NORTHEAST NORTH DAKOTA  *****

CITY           SKY/WX    TMP DP  RH WIND       PRES   REMARKS
WALHALLA       FAIR      73  73 100 MISG      29.84S
LANGDON        FAIR      75  66  73 N6        29.87S
CAVALIER       FAIR      75  66  73 N3        29.83R
GRAFTON        FAIR      75  70  83 SW6       29.83R
CANDO          FAIR      75  64  69 NW3       29.87S
FORT TOTTEN      N/A     74  66  76 CALM      29.95S
ROLLA            N/A     68  66  94 CALM      29.89S
RUGBY          FAIR      73  66  78 W5        29.87S HAZE
 ***** THE ABOVE OBSERVATIONS ARE NON NWS ARE NOT QUALITY
        CONTROLLED AND MAY MIS-REPORT RAIN FOR SNOW...
$$

 *****  OTHER OBSERVATIONS SOUTHEAST NORTH DAKOTA *****

CITY           SKY/WX    TMP DP  RH WIND       PRES   REMARKS
COOPERSTOWN    NOT AVBL
VALLEY CITY    FAIR      73  73 100 S9        29.90R
OAKES            N/A     72  59  64 S8        29.92S
GWINNER          N/A     72  72 100 SW8       29.93S
SHEYENNE NWR     N/A     74  67  79 SW6       29.95S
BUFFALO        NOT AVBL
WYNDMERE         N/A     72  66  83 S3          N/A
 ***** THE ABOVE OBSERVATIONS ARE NON NWS ARE NOT QUALITY
       CONTROLLED AND MAY MIS-REPORT RAIN FOR SNOW...
$$

  *****  WEATHER ACROSS NORTHERN MINNESOTA  *****

CITY           SKY/WX    TMP DP  RH WIND       PRES   REMARKS
FLAG ISLAND    PTCLDY    70  66  88 CALM      29.82F
WARROAD        MOCLDY    75  70  83 SW7       29.85S
ROSEAU         PTCLDY    75  70  83 SW5       29.85R
HALLOCK        CLEAR     75  72  88 CALM      29.82R
THF RVR FALLS  PTCLDY   N/A N/A N/A S9        29.87R
HALSTAD        NOT AVBL
FOSSTON        PTCLDY    70  64  83 S8        29.92R
BAUDETTE       PTCLDY    75  66  73 SW9       29.83F
WASKISH        PTCLDY    70  64  83 SW7       29.88F
CROOKSTON      CLEAR     75  68  78 SW10      29.87S
$$
  *****  WEATHER ACROSS CENTRAL AND WEST MINNESOTA  *****

CITY           SKY/WX    TMP DP  RH WIND       PRES   REMARKS
BEMIDJI        PTCLDY    72  64  77 S6        29.92R
PARK RAPIDS    PTCLDY    73  63  70 S7        29.94R
WADENA         CLEAR     70  63  78 S6        29.96R
DETROIT LAKES  CLEAR     72  64  78 S8        29.95R
MOORHEAD       CLEAR     75  64  69 S13       29.91R
FERGUS FALLS   CLEAR     70  64  83 S8        29.94R
ELBOW LAKE     FAIR      68  64  86 S12       29.96R
MORRIS MN      CLEAR     66  64  94 S8        29.97R
STAPLES        PTCLDY    68  61  77 S8        29.98R
WHEATON        CLEAR     66  63  88 S10       29.96R
$$
  *****  WEATHER ELSEWHERE ACROSS MINNESOTA  *****

CITY           SKY/WX    TMP DP  RH WIND       PRES   REMARKS
DULUTH         PTCLDY    71  60  68 SW10      29.97R
INTRNTL FALLS  MOCLDY    74  66  76 SW10      29.84R
ELY            MOCLDY    72  63  73 SW8       29.92R
CLOQUET        PTCLDY    68  61  77 S7        29.97S
BRAINERD       PTCLDY    71  63  75 S10       29.97R
HIBBING        MOCLDY    72  63  73 VRB6      29.93S
ALEXANDRIA     CLEAR     69  62  78 S14       30.00R
SAINT CLOUD    CLEAR     67  61  81 S7        29.99R
MINNEAPOLIS    MOCLDY    65  57  75 SE6       30.02R
$$

  *****  WEATHER ACROSS SOUTH DAKOTA  *****

CITY           SKY/WX    TMP DP  RH WIND       PRES   REMARKS
SIOUX FALLS    CLOUDY    65  59  81 E9        29.99R
BROOKINGS      CLEAR     66  61  82 SE8       30.01R
WATERTOWN      CLEAR     70  62  76 S8        29.98R
HURON          CLEAR     74  66  76 SE8       29.95R
SISSETON         N/A     71  64  78 S9        29.94R
ABERDEEN       CLEAR     72  66  81 S6        29.94R
MITCHELL       CLEAR     70  66  87 SE6       29.97R
PIERRE         CLEAR     75  68  78 SE7       29.94S
MOBRIDGE       PTCLDY    76  70  82 SE8       29.90S
RAPID CITY     PTCLDY    78  64  61 CALM      30.03S
$$

  *****  SOME WEATHER IN NEARBY STATES *****

CITY           SKY/WX    TMP DP  RH WIND       PRES   REMARKS
GLASGOW MT     CLOUDY    79  41  25 NW7       29.90S HAZE
GREAT FALLS MT CLOUDY    84  36  18 S7        29.91F HAZE
CHEYENNE WY    CLEAR     76  40  27 NE6       30.26S
SCOTTSBLUFF NE CLEAR     79  54  41 CALM      30.10S HAZE
OMAHA NE       CLOUDY    66  65  96 NW12      29.90R
DES MOINES IA  LGT RAIN  73  67  81 W6        29.87R
DAVENPORT IA   CLOUDY    69  63  81 E14       29.95F
CHICAGO IL     CLOUDY    71  60  68 E6        30.06S
EAU CLAIRE WI  PTCLDY    62  56  80 S12       30.04S
LA CROSSE WI   RAIN      59  56  89 E9        30.05R FOG
$$

  *****  SOME NATIONAL WEATHER *****

CITY           SKY/WX    TMP DP  RH WIND       PRES   REMARKS
LA GUARDIA NY  PTCLDY    77  53  43 N7        30.16R
RALEIGH NC     MOCLDY    74  59  59 E3        30.16R
ATLANTA GA     CLOUDY    77  66  68 SE8       30.13R
NEW ORLEANS LA PTCLDY    83  61  47 E6        29.97R
OKLAHOMA CITY  MOCLDY    80  69  69 S6        29.92R
ALBUQUERQUE NM PTCLDY    79  51  37 E24G35    30.13R
SALT LAKE CITY MOSUNNY   92  35  13 N7        30.04F
LOS ANGELES CA MOSUNNY   80  66  62 W17       29.82F
BOISE ID       CLOUDY    87  41  19 NW13      29.90F
SEATTLE WA     CLOUDY    71  56  58 NW3       29.85F
$$

*** WEATHER ACROSS MANITOBA...SASKATCHEWAN AND ONTARIO ***
                ***ONTARIO***

CITY           SKY/WX    TMP DP  RH WIND       PRES   REMARKS
GERALDTON      CLOUDY    61  59  94 S8        29.91R FOG
THUNDER BAY    CLOUDY    59  55  88 NE2       29.90S
SIOUX LOOKOUT  MOCLDY    66  64  94 S6        29.84
TORONTO        MOCLDY    64  57  77 SE6       30.15R
BIG TROUT LK   PTCLDY    59  57  94 S2        29.83R
PICKLE LAKE    MOCLDY    66  61  82 S7        29.83R
DRYDEN         CLEAR     70  64  83 W5        29.83S
KENORA         PTCLDY    70  66  88 W5        29.84S
$$
                *** MANITOBA***

CITY           SKY/WX    TMP DP  RH WIND       PRES   REMARKS
BRANDON        PTCLDY    73  64  73 E8        29.86R
DAUPHIN        CLEAR     72  61  68 SE6       29.84R
ISLAND LAKE    PTCLDY    66  61  82 SE6       29.78R
PILOT MOUND      N/A     73  64  73 N2          N/A
THE PAS        PTCLDY    77  57  50 SW5       29.74S
THOMPSON       MOCLDY    70  57  64 SW3       29.67R
WINNIPEG       MOCLDY    77  64  65 N2        29.83R
LYNN LAKE      CLEAR     72  43  35 MISG      29.64R
CHURCHILL      MOCLDY    59  54  82 SE14      29.64F
GILLAM         MOCLDY    68  54  60 S7        29.69S
$$
                ***SASKATCHEWAN***

CITY           SKY/WX    TMP DP  RH WIND       PRES   REMARKS
ESTEVAN        CLOUDY    77  63  61 SE5       29.85S SMOKE
KINDERSLEY     CLOUDY    75  50  41 SW6       29.79F SMOKE
LLOYDMINSTER   CLOUDY    72  55  56 S8        29.72F
PRINCE ALBERT  CLOUDY    73  59  60 S5        29.77S
REGINA         CLOUDY    72  57  60 W7        29.85R SMOKE



USA.gov is the U.S. government's official web portal to all federal, state and local government web resources and services.